N1EDF Weather Reports


Display with metric or nautical units.
time (UTC)temp
F
wind
direction
speed
MPH
gust
MPH
rain 1hr
in
rain 24hr
in
rain mn
in
humidity
%
barometer
mb
20260503013057 47 150 0.0 0.0 0.00 0.00 0.00 57 1010.8
20260503012513 47 150 0.0 0.0 0.00 0.00 0.00 57 1010.8
20260503012022 47 150 0.0 0.0 0.00 0.00 0.00 57 1010.7
20260503011537 47 150 0.0 0.0 0.00 0.00 0.00 57 1010.6
20260503011047 47 150 0.0 0.0 0.00 0.00 0.00 57 1010.6
20260503010503 47 150 0.0 0.0 0.00 0.00 0.00 57 1010.4
20260503010016 47 150 0.0 0.0 0.00 0.00 0.00 57 1010.3
20260503005527 47 150 0.0 0.0 0.00 0.00 0.00 57 1010.2
20260503005037 47 150 0.0 0.0 0.00 0.00 0.00 57 1010.1
20260503004551 47 150 0.0 0.0 0.00 0.00 0.00 57 1010.2
20260503004006 47 150 0.0 0.0 0.00 0.00 0.00 57 1010.2
20260503003517 47 150 0.0 0.0 0.00 0.00 0.00 57 1010.2
20260503003027 47 150 0.0 0.0 0.00 0.00 0.00 57 1010.2
20260503002541 47 150 0.0 0.0 0.00 0.00 0.00 57 1010.2
20260503002051 47 150 0.0 0.0 0.00 0.00 0.00 61 1010.2
20260503001511 47 150 0.0 0.0 0.00 0.00 0.00 63 1010.2
20260503001023 47 150 0.0 0.0 0.00 0.00 0.00 64 1010.2
20260503000531 48 150 0.0 0.0 0.00 0.00 0.00 65 1010.0
20260503000046 48 150 0.0 0.0 0.00 0.00 0.00 69 1010.1
20260502235555 48 150 0.0 0.0 0.00 0.00 0.00 69 1010.1
20260502235014 48 150 0.0 0.0 0.00 0.00 0.00 69 1010.0
20260502234528 48 150 0.0 0.0 0.00 0.00 0.00 66 1010.1
20260502234038 48 150 0.0 0.0 0.00 0.00 0.00 67 1010.0
20260502233545 48 150 0.0 0.0 0.00 0.00 0.00 67 1010.0
20260502233059 48 150 0.0 0.0 0.00 0.00 0.00 68 1009.9
20260502233001 48 150 0.0 0.0 0.00 0.00 0.00 69 1010.0
20260502232515 48 150 0.0 0.0 0.00 0.00 0.00 69 1009.9
20260502232025 48 150 0.0 0.0 0.00 0.00 0.00 70 1010.0
20260502231535 48 150 0.0 0.0 0.00 0.00 0.00 68 1010.0
20260502231049 48 150 0.0 0.0 0.00 0.00 0.00 69 1009.9
20260502230600 49 150 0.0 0.0 0.00 0.00 0.00 69 1009.8
20260502230502 49 150 0.0 0.0 0.00 0.00 0.00 70 1009.8
20260502230022 49 150 0.0 0.0 0.00 0.00 0.00 73 1009.9
20260502225528 49 150 0.0 0.0 0.00 0.00 0.00 74 1009.9
20260502225039 49 150 0.0 0.0 0.00 0.00 0.00 73 1009.9
20260502224550 49 150 0.0 0.0 0.00 0.00 0.00 77 1009.8
20260502224006 49 150 0.0 0.0 0.00 0.00 0.00 82 1009.7
20260502223515 49 150 0.0 0.0 0.00 0.00 0.00 82 1009.7
20260502223029 50 150 0.0 0.0 0.00 0.00 0.00 85 1009.8
20260502222540 50 150 0.0 0.0 0.00 0.00 0.00 85 1009.8
20260502222054 50 150 0.0 0.0 0.00 0.00 0.00 83 1009.9
20260502221510 50 150 0.0 0.0 0.00 0.00 0.00 89 1009.9
20260502221019 50 150 0.0 0.0 0.00 0.00 0.00 93 1009.9
20260502220536 51 150 0.0 0.0 0.00 0.00 0.00 95 1009.9
20260502220043 51 150 0.0 0.0 0.00 0.00 0.00 97 1009.9
20260502215559 51 150 0.0 0.0 0.00 0.00 0.00 100 1010.0
20260502215012 52 150 0.0 0.0 0.00 0.00 0.00 100 1010.0
20260502214523 52 150 0.0 0.0 0.00 0.00 0.00 100 1010.0
20260502214033 53 150 0.0 0.0 0.00 0.00 0.00 100 1010.0
20260502213547 53 144 0.0 0.0 0.00 0.00 0.00 100 1010.0
20260502213100 54 145 0.0 0.0 0.00 0.00 0.00 100 1010.0
20260502212516 54 145 0.0 0.0 0.00 0.00 0.00 100 1010.0
20260502212025 55 144 0.0 0.0 0.00 0.00 0.00 100 1010.0
20260502211537 55 145 1.0 0.0 0.00 0.00 0.00 100 1009.9
20260502211050 56 142 0.0 0.0 0.00 0.00 0.00 100 1009.8
20260502210503 56 169 0.0 0.0 0.00 0.00 0.00 100 1009.7
20260502210013 56 190 0.0 0.0 0.00 0.00 0.00 100 1009.6
20260502205527 56 190 1.0 0.0 0.00 0.00 0.00 100 1009.6
20260502205037 57 190 1.0 0.0 0.00 0.00 0.00 100 1009.6
20260502204556 57 165 1.0 0.0 0.00 0.00 0.00 100 1009.6
20260502204007 57 206 1.0 0.0 0.00 0.00 0.00 100 1009.6
20260502203518 57 173 1.0 0.0 0.00 0.00 0.00 100 1009.6
20260502203027 57 188 1.0 0.0 0.00 0.00 0.00 100 1009.6
20260502202541 57 149 1.0 0.0 0.00 0.00 0.00 100 1009.7
20260502202051 57 210 1.0 0.0 0.00 0.00 0.00 100 1009.7
20260502201507 57 194 2.0 0.0 0.00 0.00 0.00 100 1009.8
20260502201020 57 167 1.0 0.0 0.00 0.00 0.00 100 1009.8
20260502200532 57 189 1.0 0.0 0.00 0.00 0.00 100 1009.8
20260502200048 57 216 1.0 0.0 0.00 0.00 0.00 100 1009.9
20260502195554 56 133 1.0 0.0 0.00 0.00 0.00 100 1009.9
20260502195009 56 154 2.0 0.0 0.00 0.00 0.00 100 1010.0
20260502194522 57 263 1.0 0.0 0.00 0.00 0.00 100 1010.1
20260502194035 56 136 1.0 0.0 0.00 0.00 0.00 100 1010.1
20260502193543 56 143 1.0 0.0 0.00 0.00 0.00 100 1010.1
20260502193104 55 140 1.0 0.0 0.00 0.00 0.00 100 1010.2
20260502192509 55 169 2.0 0.0 0.00 0.00 0.00 100 1010.3
20260502192023 55 192 2.0 0.0 0.00 0.00 0.00 100 1010.4
20260502191540 56 144 1.0 0.0 0.00 0.00 0.00 100 1010.4
20260502191047 55 271 2.0 0.0 0.00 0.00 0.00 100 1010.4
20260502190558 55 150 2.0 0.0 0.00 0.00 0.00 100 1010.4
20260502190014 55 167 2.0 0.0 0.00 0.00 0.00 100 1010.4
20260502185523 54 138 2.0 0.0 0.00 0.00 0.00 100 1010.5
20260502185037 54 265 1.0 0.0 0.00 0.00 0.00 100 1010.5
20260502184557 54 279 1.0 0.0 0.00 0.00 0.00 100 1010.5
20260502184003 54 186 1.0 0.0 0.00 0.00 0.00 100 1010.6
20260502183515 54 196 1.0 0.0 0.00 0.00 0.00 100 1010.6
20260502183031 55 275 1.0 0.0 0.00 0.00 0.00 100 1010.5
20260502182536 55 156 1.0 0.0 0.00 0.00 0.00 100 1010.4
20260502182051 55 212 1.0 0.0 0.00 0.00 0.00 100 1010.5
20260502181508 55 156 1.0 0.0 0.00 0.00 0.00 100 1010.5
20260502181017 56 218 1.0 0.0 0.00 0.00 0.00 100 1010.6
20260502180537 56 187 1.0 0.0 0.00 0.00 0.00 100 1010.5
20260502170501 54 156 2.0 0.0 0.00 0.00 0.00 100 1011.1
20260502164100 54 179 0.0 0.0 0.00 0.00 0.00 100 1011.1
20260502164002 54 177 0.0 0.0 0.00 0.00 0.00 100 1011.1
20260502163515 54 177 0.0 0.0 0.00 0.00 0.00 100 1011.1
20260502163025 54 210 0.0 0.0 0.00 0.00 0.00 100 1010.9
20260502162539 54 205 0.0 0.0 0.00 0.00 0.00 100 1011.0
20260502162050 54 204 0.0 0.0 0.00 0.00 0.00 100 1011.0
20260502161506 53 204 0.0 0.0 0.00 0.00 0.00 100 1010.9
20260502161020 53 205 0.0 0.0 0.00 0.00 0.00 100 1011.1
20260502160531 53 205 0.0 0.0 0.00 0.00 0.00 100 1011.3
20260502152024 51 197 0.0 0.0 0.00 0.00 0.00 77 1011.8
20260502151537 50 198 0.0 0.0 0.00 0.00 0.00 58 1012.0
20260502151041 50 198 0.0 0.0 0.00 0.00 0.00 64 1011.7
20260502150547 50 198 0.0 0.0 0.00 0.00 0.00 60 1011.6
20260502130547 45 334 0.0 0.0 0.00 0.00 0.00 57 1012.8
20260502123553 46 334 0.0 0.0 0.00 0.00 0.00 57 1012.8
20260502123005 47 334 0.0 0.0 0.00 0.00 0.00 57 1012.8
20260502122519 47 334 0.0 0.0 0.00 0.00 0.00 57 1012.6
20260502122029 46 335 0.0 0.0 0.00 0.00 0.00 57 1012.3
20260502121550 46 335 0.0 0.0 0.00 0.00 0.00 57 1012.1
20260502121054 46 335 0.0 0.0 0.00 0.00 0.00 57 1012.0
20260502120510 46 335 0.0 0.0 0.00 0.00 0.00 57 1012.1
20260502115533 46 335 0.0 0.0 0.00 0.00 0.00 57 1011.8
20260502115050 45 335 0.0 0.0 0.00 0.00 0.00 57 1011.7
20260502114558 45 335 0.0 0.0 0.00 0.00 0.00 57 1011.7
20260502114013 45 335 0.0 0.0 0.00 0.00 0.00 57 1011.8
20260502113524 45 335 0.0 0.0 0.00 0.00 0.00 57 1011.9
20260502113038 45 335 0.0 0.0 0.00 0.00 0.00 57 1011.9
20260502112547 45 335 0.0 0.0 0.00 0.00 0.00 57 1012.0
20260502112004 45 335 0.0 0.0 0.00 0.00 0.00 57 1011.9
20260502111519 45 335 0.0 0.0 0.00 0.00 0.00 57 1011.7
20260502111027 45 335 0.0 0.0 0.00 0.00 0.00 57 1011.8
20260502110537 45 335 0.0 0.0 0.00 0.00 0.00 60 1011.7
20260502110055 45 334 0.0 0.0 0.00 0.00 0.00 65 1011.9
20260502105507 45 335 0.0 0.0 0.00 0.00 0.00 67 1011.6
20260502105018 45 334 0.0 0.0 0.00 0.00 0.00 68 1011.8
20260502104528 45 334 0.0 0.0 0.00 0.00 0.00 75 1011.4
20260502104041 46 334 0.0 0.0 0.00 0.00 0.00 78 1011.4
20260502103554 45 334 0.0 0.0 0.00 0.00 0.00 76 1011.5
20260502103007 45 334 0.0 0.0 0.00 0.00 0.00 75 1011.4
20260502102518 45 334 0.0 0.0 0.00 0.00 0.00 71 1011.4
20260502102032 45 334 0.0 0.0 0.00 0.00 0.00 66 1011.3
20260502101550 45 334 0.0 0.0 0.00 0.00 0.00 65 1011.4
20260502101055 44 334 0.0 0.0 0.00 0.00 0.00 61 1011.3
20260502100516 44 334 0.0 0.0 0.00 0.00 0.00 58 1011.1
20260502091516 45 334 0.0 0.0 0.00 0.00 0.00 77 1010.9
20260502091026 46 334 0.0 0.0 0.00 0.00 0.00 81 1011.0
20260502090539 46 334 0.0 0.0 0.00 0.00 0.00 86 1011.1
20260502071513 46 334 0.0 0.0 0.00 0.00 0.00 99 1011.1
20260502071027 47 334 0.0 0.0 0.00 0.00 0.00 100 1010.9
20260502070541 47 334 0.0 0.0 0.00 0.00 0.00 100 1010.9
20260502070101 47 334 0.0 0.0 0.00 0.00 0.00 100 1011.0
20260502065504 47 334 0.0 0.0 0.00 0.00 0.00 100 1011.5
20260502065019 46 334 0.0 0.0 0.00 0.00 0.00 100 1011.6
20260502064529 46 334 0.0 0.0 0.00 0.00 0.00 100 1011.8
20260502064041 45 334 0.0 0.0 0.00 0.00 0.00 100 1011.6
20260502063553 45 334 0.0 0.0 0.00 0.00 0.00 100 1011.4
20260502063022 45 334 0.0 0.0 0.00 0.00 0.00 100 1011.3
20260502062518 44 334 0.0 0.0 0.00 0.00 0.00 100 1011.1
20260502062031 44 334 0.0 0.0 0.00 0.00 0.00 100 1011.1
20260502061543 44 334 0.0 0.0 0.00 0.00 0.00 100 1011.1
20260502061055 44 334 0.0 0.0 0.00 0.00 0.00 100 1011.1
20260502060513 44 334 0.0 0.0 0.00 0.00 0.00 100 1011.3
20260502060021 44 334 0.0 0.0 0.00 0.00 0.00 100 1011.1
20260502055537 44 334 0.0 0.0 0.00 0.00 0.00 100 1011.1
20260502055046 44 334 0.0 0.0 0.00 0.00 0.00 100 1011.2
20260502054502 44 334 0.0 0.0 0.00 0.00 0.00 100 1011.3
20260502054011 44 334 0.0 0.0 0.00 0.00 0.00 100 1011.2
20260502053525 44 334 0.0 0.0 0.00 0.00 0.00 100 1011.2
20260502053036 44 334 0.0 0.0 0.00 0.00 0.00 100 1011.2
20260502052546 44 334 0.0 0.0 0.00 0.00 0.00 100 1011.2
20260502052054 44 334 0.0 0.0 0.00 0.00 0.00 100 1011.3
20260502051510 44 334 0.0 0.0 0.00 0.00 0.00 100 1011.3
20260502051019 44 334 0.0 0.0 0.00 0.00 0.00 100 1011.2
20260502050533 44 334 0.0 0.0 0.00 0.00 0.00 100 1011.2
20260502050044 44 334 0.0 0.0 0.00 0.00 0.00 100 1011.2
20260502045600 44 334 0.0 0.0 0.00 0.00 0.00 100 1011.2
20260502045013 44 334 0.0 0.0 0.00 0.00 0.00 100 1011.2
20260502044524 44 334 0.0 0.0 0.00 0.00 0.00 100 1011.3
20260502044035 44 334 0.0 0.0 0.00 0.00 0.00 100 1011.4
20260502043548 44 334 0.0 0.0 0.00 0.00 0.00 100 1011.5
20260502043111 44 334 0.0 0.0 0.00 0.00 0.00 100 1011.5
20260502042514 44 334 0.0 0.0 0.00 0.00 0.00 100 1011.5
20260502042024 44 334 0.0 0.0 0.00 0.00 0.00 100 1011.4
20260502041600 44 334 0.0 0.0 0.00 0.00 0.00 100 1011.4
20260502041047 45 334 0.0 0.0 0.00 0.00 0.00 100 1011.4
20260502040503 45 334 0.0 0.0 0.00 0.00 0.00 100 1011.4
20260502040021 45 334 0.0 0.0 0.00 0.00 0.00 100 1011.4
20260502035518 45 334 0.0 0.0 0.00 0.00 0.00 100 1011.3
20260502035028 45 334 0.0 0.0 0.00 0.00 0.00 100 1011.4
20260502034542 45 334 0.0 0.0 0.00 0.00 0.00 100 1011.4
20260502034052 46 334 0.0 0.0 0.00 0.00 0.00 100 1011.4
20260502033513 46 334 0.0 0.0 0.00 0.00 0.00 100 1011.5
20260502033020 46 334 0.0 0.0 0.00 0.00 0.00 100 1011.5
20260502032531 46 334 0.0 0.0 0.00 0.00 0.00 100 1011.5
20260502032042 46 334 0.0 0.0 0.00 0.00 0.00 100 1011.4
20260502031556 46 334 0.0 0.0 0.00 0.00 0.00 100 1011.3
20260502031008 46 334 0.0 0.0 0.00 0.00 0.00 100 1011.2
20260502030522 46 334 0.0 0.0 0.00 0.00 0.00 100 1011.1
20260502030032 46 334 0.0 0.0 0.00 0.00 0.00 100 1011.0
20260502025546 46 334 0.0 0.0 0.00 0.00 0.00 100 1011.1
20260502025055 46 334 0.0 0.0 0.00 0.00 0.00 100 1011.1
20260502025003 46 334 0.0 0.0 0.00 0.00 0.00 100 1011.1
20260502024513 46 334 0.0 0.0 0.00 0.00 0.00 100 1011.1
20260502024028 46 334 0.0 0.0 0.00 0.00 0.00 100 1011.1
20260502023536 46 334 0.0 0.0 0.00 0.00 0.00 100 1011.2
20260502023054 46 334 0.0 0.0 0.00 0.00 0.00 100 1011.2
20260502022600 47 334 0.0 0.0 0.00 0.00 0.00 100 1011.1
20260502022503 47 334 0.0 0.0 0.00 0.00 0.00 100 1011.1
20260502022019 47 334 0.0 0.0 0.00 0.00 0.00 100 1011.0
20260502021526 47 334 0.0 0.0 0.00 0.00 0.00 100 1011.1
20260502021038 47 334 0.0 0.0 0.00 0.00 0.00 100 1011.1
20260502020548 47 334 0.0 0.0 0.00 0.00 0.00 100 1011.1
20260502020004 48 334 0.0 0.0 0.00 0.00 0.00 100 1011.1
20260502015514 48 334 0.0 0.0 0.00 0.00 0.00 100 1011.1
20260502015028 48 334 0.0 0.0 0.00 0.00 0.00 100 1011.1
20260502014538 49 334 0.0 0.0 0.00 0.00 0.00 100 1011.1
20260502014052 49 334 0.0 0.0 0.00 0.00 0.00 100 1011.0
20260502013504 49 334 0.0 0.0 0.00 0.00 0.00 100 1011.0